FW9488 Weather Reports


time (UTC)temp
C
wind
direction
speed
KPH
gust
KPH
rain 1hr
cm
rain 24hr
cm
rain mn
cm
humidity
%
barometer
mb
20260506134551 10 0 0.0 0.0 0.00 0.00 0.00 53 1016.6
20260506133101 8 0 0.0 0.0 0.00 0.00 0.00 54 1016.2
20260506131600 7 0 0.0 0.0 0.00 0.00 0.00 56 1016.0
20260506130054 7 0 1.6 3.2 0.00 0.00 0.00 55 1015.8
20260506124549 8 0 0.0 0.0 0.00 0.00 0.00 54 1015.7
20260506123049 8 0 0.0 3.2 0.00 0.00 0.00 52 1015.5
20260506121545 8 0 0.0 0.0 0.00 0.00 0.00 52 1015.2
20260506120050 8 0 0.0 0.0 0.00 0.00 0.00 51 1015.2
20260506114553 8 0 0.0 1.6 0.00 0.00 0.00 51 1015.3
20260506113049 8 0 0.0 0.0 0.00 0.00 0.00 49 1015.1
20260506111547 9 0 0.0 0.0 0.00 0.00 0.00 47 1014.9
20260506104549 10 0 0.0 0.0 0.00 0.00 0.00 45 1014.4
20260506103049 10 0 0.0 1.6 0.00 0.00 0.00 42 1014.4
20260506101549 11 360 0.0 6.4 0.00 0.00 0.00 40 1014.3
20260506100049 13 360 1.6 6.4 0.00 0.00 0.00 44 1014.0
20260506094619 12 360 3.2 9.7 0.00 0.00 0.00 47 1014.0
20260506093053 11 0 0.0 3.2 0.00 0.00 0.00 45 1013.9
20260506091552 11 0 0.0 1.6 0.00 0.00 0.00 43 1013.9
20260506090052 12 360 1.6 4.8 0.00 0.00 0.00 42 1013.7
20260506084551 11 360 1.6 4.8 0.00 0.00 0.00 41 1013.8
20260506083105 11 360 1.6 6.4 0.00 0.00 0.00 41 1013.5
20260506081551 12 360 1.6 4.8 0.00 0.00 0.00 39 1013.6
20260506073050 12 0 0.0 0.0 0.00 0.00 0.00 38 1013.4
20260506071555 12 0 0.0 3.2 0.00 0.00 0.00 37 1013.4
20260506061550 15 0 0.0 1.6 0.00 0.00 0.00 35 1012.7
20260506060109 15 86 1.6 6.4 0.00 0.00 0.00 34 1012.8
20260506044605 15 0 0.0 0.0 0.00 0.00 0.00 36 1012.2
20260506043047 16 0 0.0 0.0 0.00 0.00 0.00 35 1012.0
20260506041555 16 0 0.0 3.2 0.00 0.00 0.00 35 1011.8
20260506040052 16 0 0.0 1.6 0.00 0.00 0.00 34 1011.5
20260506034549 17 0 0.0 0.0 0.00 0.00 0.00 33 1011.3
20260506033052 18 0 0.0 3.2 0.00 0.00 0.00 31 1011.0
20260506031557 18 0 0.0 3.2 0.00 0.00 0.00 31 1010.8
20260506030052 19 0 0.0 3.2 0.00 0.00 0.00 30 1010.4
20260506024559 20 0 0.0 1.6 0.00 0.00 0.00 30 1010.3
20260506023100 20 0 1.6 6.4 0.00 0.00 0.00 29 1010.0
20260506021556 20 174 3.2 11.3 0.00 0.00 0.00 29 1009.9
20260506020053 21 153 4.8 11.3 0.00 0.00 0.00 29 1009.7
20260506014558 21 212 6.4 12.9 0.00 0.00 0.00 28 1009.6
20260506013046 21 235 3.2 14.5 0.00 0.00 0.00 28 1009.5
20260506011549 22 192 4.8 12.9 0.00 0.00 0.00 28 1009.5
20260506010057 21 237 4.8 12.9 0.00 0.00 0.00 28 1009.5
20260506004553 21 241 4.8 12.9 0.00 0.00 0.00 28 1009.4
20260506003050 22 214 8.0 17.7 0.00 0.00 0.00 28 1009.4
20260506001551 22 217 6.4 14.5 0.00 0.00 0.00 29 1009.5
20260506000053 21 186 12.9 22.5 0.00 0.00 0.00 29 1009.3
20260505234554 21 293 9.7 19.3 0.00 0.00 0.00 29 1009.2
20260505233051 22 339 4.8 16.1 0.00 0.00 0.00 29 1009.2
20260505231600 22 239 6.4 17.7 0.00 0.00 0.00 30 1009.4
20260505230059 22 253 3.2 22.5 0.00 0.00 0.00 30 1009.6
20260505224553 21 227 8.0 16.1 0.00 0.00 0.00 31 1009.6
20260505223053 21 148 8.0 14.5 0.00 0.00 0.00 30 1009.7
20260505221557 21 153 6.4 12.9 0.00 0.00 0.00 31 1009.9
20260505220056 21 319 6.4 14.5 0.00 0.00 0.00 30 1010.0
20260505214556 21 228 9.7 17.7 0.00 0.00 0.00 31 1010.4
20260505213105 21 212 6.4 17.7 0.00 0.00 0.00 30 1010.4
20260505211552 20 217 4.8 12.9 0.00 0.00 0.00 32 1010.6
20260505210051 20 281 6.4 19.3 0.00 0.00 0.00 32 1010.7
20260505204550 20 57 8.0 16.1 0.00 0.00 0.00 33 1010.7
20260505203046 20 30 1.6 17.7 0.00 0.00 0.00 33 1010.8
20260505201550 20 227 3.2 16.1 0.00 0.00 0.00 34 1010.9
20260505200052 20 277 3.2 30.6 0.00 0.00 0.00 34 1011.0
20260505194551 20 10 9.7 30.6 0.00 0.00 0.00 34 1010.9
20260505193052 18 5 3.2 12.9 0.00 0.00 0.00 36 1011.2
20260505191608 18 84 4.8 11.3 0.00 0.00 0.00 32 1011.3
20260505190052 18 246 0.0 11.3 0.00 0.00 0.00 35 1011.5
20260505184551 17 223 3.2 14.5 0.00 0.00 0.00 39 1011.6
20260505183051 16 266 3.2 12.9 0.00 0.00 0.00 40 1011.7
20260505181552 16 249 6.4 19.3 0.00 0.00 0.00 40 1011.8
20260505174606 16 192 8.0 12.9 0.00 0.00 0.00 44 1011.7
20260505173052 16 223 3.2 17.7 0.00 0.00 0.00 45 1011.7
20260505171552 16 140 1.6 9.7 0.00 0.00 0.00 45 1011.7
20260505170051 15 298 4.8 9.7 0.00 0.00 0.00 46 1011.8
20260505164551 15 273 4.8 12.9 0.00 0.00 0.00 47 1011.7
20260505163049 15 239 6.4 17.7 0.00 0.00 0.00 47 1011.5
20260505161553 15 212 4.8 16.1 0.00 0.00 0.00 47 1011.4
20260505153049 13 133 3.2 11.3 0.00 0.00 0.00 52 1011.4
20260505151549 13 111 4.8 16.1 0.00 0.00 0.00 52 1011.3